Stündliche Wetter Holubenka

Heute, 21 Juni, Montag

Zeit Temperatur Niederschläge Wind Luftdruck Luftfeuchtigkeit
00:00 +19°C° 0 mm 3 m/S 743 mmHg 93%
01:00 +18°C° 0 mm 3 m/S 743 mmHg 94%
02:00 +18°C° 0 mm 3 m/S 743 mmHg 96%
03:00 +18°C° 0 mm 2 m/S 743 mmHg 95%
04:00 +19°C° 0 mm 2 m/S 743 mmHg 95%
05:00 +19°C° 0 mm 2 m/S 743 mmHg 95%
06:00 +20°C° 0 mm 2 m/S 743 mmHg 90%
07:00 +23°C° 0 mm 2 m/S 743 mmHg 84%
08:00 +25°C° 0 mm 2 m/S 743 mmHg 78%
09:00 +26°C° 0 mm 2 m/S 743 mmHg 73%
10:00 +27°C° 0 mm 2 m/S 743 mmHg 69%
11:00 +28°C° 0 mm 2 m/S 743 mmHg 65%
12:00 +29°C° 0 mm 2 m/S 743 mmHg 62%
13:00 +29°C° 0 mm 2 m/S 743 mmHg 59%
14:00 +30°C° 0 mm 2 m/S 743 mmHg 56%
15:00 +30°C° 0 mm 2 m/S 743 mmHg 56%
16:00 +30°C° 0 mm 1 m/S 743 mmHg 56%
17:00 +30°C° 0 mm 1 m/S 743 mmHg 56%
18:00 +29°C° 0 mm 1 m/S 743 mmHg 61%
19:00 +27°C° 0 mm 1 m/S 743 mmHg 66%
20:00 +25°C° 0 mm 1 m/S 743 mmHg 71%
21:00 +25°C° 0 mm 1 m/S 743 mmHg 74%
22:00 +24°C° 0 mm 2 m/S 743 mmHg 77%
23:00 +23°C° 0 mm 2 m/S 743 mmHg 80%

Morgen, 22 Juni, Dienstag

Zeit Temperatur Niederschläge Wind Luftdruck Luftfeuchtigkeit
00:00 +23°C° 0 mm 2 m/S 743 mmHg 82%
01:00 +22°C° 0 mm 3 m/S 743 mmHg 85%
02:00 +21°C° 0 mm 3 m/S 743 mmHg 87%
03:00 +21°C° 0 mm 3 m/S 743 mmHg 87%
04:00 +21°C° 0 mm 3 m/S 743 mmHg 87%
05:00 +21°C° 0 mm 3 m/S 743 mmHg 87%
06:00 +22°C° 0 mm 3 m/S 743 mmHg 82%
07:00 +23°C° 0 mm 4 m/S 743 mmHg 77%
08:00 +25°C° 0 mm 4 m/S 743 mmHg 73%
09:00 +26°C° 0 mm 4 m/S 743 mmHg 69%
10:00 +27°C° 0 mm 5 m/S 743 mmHg 66%
11:00 +28°C° 0 mm 5 m/S 743 mmHg 63%
12:00 +29°C° 0 mm 4 m/S 743 mmHg 62%
13:00 +30°C° 0 mm 4 m/S 743 mmHg 61%
14:00 +32°C° 0 mm 4 m/S 743 mmHg 59%
15:00 +32°C° 0 mm 4 m/S 743 mmHg 62%
16:00 +31°C° 0 mm 3 m/S 743 mmHg 64%
17:00 +31°C° 0 mm 3 m/S 743 mmHg 66%
18:00 +29°C° 0 mm 3 m/S 744 mmHg 71%
19:00 +27°C° 0 mm 3 m/S 744 mmHg 76%
20:00 +26°C° 0 mm 4 m/S 744 mmHg 82%
21:00 +25°C° 0.3 mm 3 m/S 744 mmHg 81%
22:00 +24°C° 0.3 mm 3 m/S 744 mmHg 80%
23:00 +23°C° 0.3 mm 2 m/S 744 mmHg 79%

übermorgen, 23 Juni, Mittwoch

Zeit Temperatur Niederschläge Wind Luftdruck Luftfeuchtigkeit
00:00 +21°C° 0 mm 2 m/S 744 mmHg 79%
01:00 +21°C° 0 mm 2 m/S 744 mmHg 80%
02:00 +20°C° 0 mm 2 m/S 744 mmHg 81%
03:00 +20°C° 0 mm 2 m/S 744 mmHg 82%
04:00 +20°C° 0 mm 2 m/S 744 mmHg 84%
05:00 +20°C° 0 mm 2 m/S 744 mmHg 86%
06:00 +22°C° 0 mm 3 m/S 744 mmHg 82%
07:00 +24°C° 0 mm 3 m/S 744 mmHg 78%
08:00 +26°C° 0 mm 4 m/S 745 mmHg 74%
09:00 +27°C° 0 mm 4 m/S 745 mmHg 70%
10:00 +28°C° 0 mm 4 m/S 745 mmHg 67%
11:00 +29°C° 0 mm 5 m/S 745 mmHg 63%
12:00 +29°C° 0 mm 5 m/S 745 mmHg 63%
13:00 +29°C° 0 mm 4 m/S 745 mmHg 63%
14:00 +29°C° 0 mm 4 m/S 745 mmHg 63%
15:00 +28°C° 0 mm 4 m/S 745 mmHg 68%
16:00 +28°C° 0 mm 3 m/S 745 mmHg 72%
17:00 +27°C° 0 mm 3 m/S 745 mmHg 77%
18:00 +26°C° 0.2 mm 3 m/S 745 mmHg 81%
19:00 +25°C° 0.2 mm 3 m/S 745 mmHg 85%
20:00 +24°C° 0.2 mm 3 m/S 745 mmHg 88%
21:00 +24°C° 0.5 mm 3 m/S 745 mmHg 90%
22:00 +22°C° 0.5 mm 3 m/S 745 mmHg 91%
23:00 +22°C° 0.5 mm 3 m/S 745 mmHg 92%

24 Juni, Donnerstag

Zeit Temperatur Niederschläge Wind Luftdruck Luftfeuchtigkeit
00:00 +21°C° 0.2 mm 2 m/S 745 mmHg 92%
01:00 +21°C° 0.2 mm 2 m/S 745 mmHg 91%
02:00 +21°C° 0.2 mm 2 m/S 745 mmHg 91%
03:00 +21°C° 0 mm 2 m/S 746 mmHg 90%
04:00 +21°C° 0 mm 2 m/S 746 mmHg 90%
05:00 +21°C° 0 mm 2 m/S 746 mmHg 89%
06:00 +24°C° 0 mm 2 m/S 746 mmHg 85%
07:00 +25°C° 0 mm 2 m/S 746 mmHg 81%
08:00 +27°C° 0 mm 2 m/S 746 mmHg 77%
09:00 +28°C° 0 mm 3 m/S 746 mmHg 72%
10:00 +29°C° 0 mm 3 m/S 746 mmHg 66%
11:00 +30°C° 0 mm 3 m/S 746 mmHg 61%
12:00 +31°C° 0 mm 3 m/S 746 mmHg 60%
13:00 +31°C° 0 mm 3 m/S 746 mmHg 58%
14:00 +33°C° 0 mm 4 m/S 746 mmHg 57%
15:00 +31°C° 0 mm 3 m/S 746 mmHg 60%
16:00 +31°C° 0 mm 3 m/S 745 mmHg 63%
17:00 +31°C° 0 mm 3 m/S 745 mmHg 65%
18:00 +29°C° 0 mm 3 m/S 745 mmHg 71%
19:00 +28°C° 0 mm 3 m/S 745 mmHg 77%
20:00 +26°C° 0 mm 3 m/S 745 mmHg 82%
21:00 +25°C° 0 mm 3 m/S 745 mmHg 84%
22:00 +24°C° 0 mm 3 m/S 745 mmHg 85%
23:00 +24°C° 0 mm 2 m/S 745 mmHg 87%

25 Juni, Freitag

Zeit Temperatur Niederschläge Wind Luftdruck Luftfeuchtigkeit
00:00 +23°C° 0.1 mm 2 m/S 745 mmHg 88%
01:00 +23°C° 0.1 mm 2 m/S 745 mmHg 89%
02:00 +21°C° 0.1 mm 3 m/S 745 mmHg 90%
03:00 +21°C° 0 mm 3 m/S 745 mmHg 90%
04:00 +21°C° 0 mm 3 m/S 745 mmHg 90%
05:00 +21°C° 0 mm 3 m/S 745 mmHg 91%
06:00 +22°C° 0 mm 3 m/S 745 mmHg 84%
07:00 +25°C° 0 mm 3 m/S 745 mmHg 78%
08:00 +27°C° 0 mm 3 m/S 745 mmHg 71%
09:00 +28°C° 0 mm 3 m/S 745 mmHg 67%
10:00 +29°C° 0 mm 3 m/S 745 mmHg 62%
11:00 +30°C° 0 mm 3 m/S 745 mmHg 58%
12:00 +30°C° 0 mm 3 m/S 745 mmHg 55%
13:00 +31°C° 0 mm 3 m/S 745 mmHg 52%
14:00 +33°C° 0 mm 3 m/S 745 mmHg 50%
15:00 +31°C° 0 mm 3 m/S 745 mmHg 53%
16:00 +31°C° 0 mm 3 m/S 744 mmHg 56%
17:00 +31°C° 0 mm 3 m/S 744 mmHg 60%
18:00 +29°C° 0 mm 2 m/S 744 mmHg 65%
19:00 +28°C° 0 mm 1 m/S 744 mmHg 71%
20:00 +24°C° 0 mm 0 m/S 744 mmHg 76%
21:00 +25°C° 0.6 mm 1 m/S 744 mmHg 80%
22:00 +24°C° 0.6 mm 1 m/S 744 mmHg 84%
23:00 +23°C° 0.6 mm 2 m/S 744 mmHg 88%

26 Juni, Samstag

Zeit Temperatur Niederschläge Wind Luftdruck Luftfeuchtigkeit
00:00 +23°C° 0.1 mm 2 m/S 744 mmHg 89%
01:00 +23°C° 0.1 mm 2 m/S 743 mmHg 90%
02:00 +23°C° 0.1 mm 2 m/S 743 mmHg 91%
03:00 +23°C° 0 mm 2 m/S 743 mmHg 91%
04:00 +23°C° 0 mm 2 m/S 743 mmHg 91%
05:00 +23°C° 0 mm 2 m/S 743 mmHg 92%
06:00 +25°C° 0 mm 2 m/S 743 mmHg 86%
07:00 +26°C° 0 mm 2 m/S 743 mmHg 80%
08:00 +28°C° 0 mm 2 m/S 743 mmHg 74%
09:00 +29°C° 0 mm 2 m/S 743 mmHg 67%
10:00 +30°C° 0 mm 2 m/S 743 mmHg 60%
11:00 +31°C° 0 mm 2 m/S 743 mmHg 53%
12:00 +32°C° 0 mm 2 m/S 743 mmHg 51%
13:00 +32°C° 0 mm 2 m/S 743 mmHg 49%
14:00 +34°C° 0 mm 2 m/S 743 mmHg 47%
15:00 +32°C° 0 mm 2 m/S 743 mmHg 48%
16:00 +32°C° 0 mm 2 m/S 742 mmHg 49%
17:00 +32°C° 0 mm 1 m/S 742 mmHg 51%
18:00 +30°C° 0 mm 1 m/S 742 mmHg 56%
19:00 +28°C° 0 mm 1 m/S 742 mmHg 61%
20:00 +27°C° 0 mm 1 m/S 741 mmHg 65%
21:00 +26°C° 0.2 mm 2 m/S 741 mmHg 70%
22:00 +25°C° 0.2 mm 2 m/S 741 mmHg 75%
23:00 +23°C° 0.2 mm 2 m/S 741 mmHg 80%
Mehr zeigen

Wir brauchen deine Erlaubnis

Meteoprog und unser Service Anbieter werden persönliche Daten aufbewahren, so wie Cookies, Geräte Bezeichnung oder ähnliche Technologien von deinem Gerät und Prozess, so wie Persönliche Daten Inhalte und Werbungen, genauso wie social Media und den Verkehr zu analysieren.

  • Aufbewahrung und/oder Zugang zu deiner Geräte Informationen.

    Cookies, Geräte Bezeichnung oder andere Informationen, können aufbewahrt oder Zugang zu deinem Gerät erhalten, für den Grund, der oben angegeben wird.

  • Personalisierte Werbung und Inhalte, Messungen, Einblick in das Publikum und Produkt Entwicklung.

    Werbungen und Inhalte können personalisiert werden, basierend auf ein Profil. Mehr Daten können besser personalisierte Werbungen und Inhalte hinzufügen. Werbung und Inhalte können gezeigt und gemessen werden. Einblicke über das Publikum, welche die Werbung gesehen haben und den Inhalt, können abgeleitet werden. So wie Daten können genutzt werden, um es zu verbessern oder die Benutzer Erfahrung zu verbessern das System und die Software.

Wenn du “Ich stimme zu” klickst, erlaubst du uns, die Cookies zu benutzen die Geräte Bezeichnung, den Web oder ähnliche Technologien zu benutzen. Deine Settings, können in deinem Gerät bei deinem Browser geändert werden.

Für den bestimmten Zweck, berechtigten Interessen beruhen darauf, mehr als auf den Inhalt. Du kannst mehr darüber in unseren Privaten und Cookie Politik lesen.